Private Wetterstation Wechselburg
Wetterdaten: Freitag, 26.03.2021
Datum Zeit Temp. +2m Bodentemp. Temp.+5cm Temp. Wind Windchill X Diff Temp. Feuchte +2m Feuchte +5cm Luftdruck Regen Wind Richtung Richtung Sonnenschein Taupunkt Windchill Windben
26.03.2021 00:00 6,6 C 8,7 C 5,4 C 6,2 C 5,5 C 0,0 C 82 % 88 % 1022,8 hPa 0,0 l/m 0,0 km/h (0 Bft) N-NO 22 0 min 3,8 C 5,5 C 1,6 km/h (1 Bft)
26.03.2021 00:05 6,6 C 8,8 C 5,3 C 6,2 C 5,5 C 0,0 C 82 % 88 % 1022,8 hPa 0,0 l/m 0,3 km/h (0 Bft) NO 45 0 min 3,8 C 5,5 C 0,0 km/h (0 Bft)
26.03.2021 00:10 6,4 C 8,7 C 5,3 C 6,1 C 5,5 C 0,0 C 83 % 88 % 1022,6 hPa 0,0 l/m 0,3 km/h (0 Bft) NO 45 0 min 3,7 C 5,5 C 0,0 km/h (0 Bft)
26.03.2021 00:15 6,5 C 8,7 C 5,2 C 6,2 C 5,5 C 0,0 C 83 % 88 % 1022,6 hPa 0,0 l/m 0,0 km/h (0 Bft) NO 45 0 min 3,8 C 5,5 C 0,0 km/h (0 Bft)
26.03.2021 00:20 6,3 C 8,7 C 4,9 C 6,0 C 5,3 C 0,0 C 83 % 88 % 1022,6 hPa 0,0 l/m 0,0 km/h (0 Bft) NO 45 0 min 3,6 C 5,3 C 0,0 km/h (0 Bft)
26.03.2021 00:25 6,2 C 8,8 C 4,9 C 5,9 C 5,2 C 0,0 C 83 % 88 % 1022,6 hPa 0,0 l/m 0,0 km/h (0 Bft) NO 45 0 min 3,5 C 5,2 C 0,0 km/h (0 Bft)
26.03.2021 00:30 6,0 C 8,7 C 4,8 C 5,6 C 4,8 C 0,0 C 83 % 88 % 1022,4 hPa 0,0 l/m 0,0 km/h (0 Bft) NO 45 0 min 3,3 C 4,8 C 0,0 km/h (0 Bft)
26.03.2021 00:35 5,9 C 8,8 C 4,7 C 5,4 C 4,5 C 0,0 C 83 % 88 % 1022,4 hPa 0,0 l/m 0,0 km/h (0 Bft) NO 45 0 min 3,2 C 4,5 C 0,0 km/h (0 Bft)
26.03.2021 00:40 5,7 C 8,7 C 4,5 C 5,2 C 4,3 C 0,0 C 83 % 88 % 1022,4 hPa 0,0 l/m 0,0 km/h (0 Bft) NO 45 0 min 3,0 C 4,3 C 0,0 km/h (0 Bft)
26.03.2021 00:45 5,7 C 8,7 C 4,3 C 5,2 C 4,3 C 0,0 C 84 % 88 % 1022,4 hPa 0,0 l/m 0,0 km/h (0 Bft) NO 45 0 min 3,2 C 4,3 C 0,0 km/h (0 Bft)
26.03.2021 00:50 5,4 C 8,7 C 4,2 C 5,0 C 4,2 C 0,0 C 84 % 88 % 1023,1 hPa 0,0 l/m 0,0 km/h (0 Bft) NO 45 0 min 2,9 C 4,2 C 0,0 km/h (0 Bft)
26.03.2021 00:55 5,3 C 8,7 C 4,1 C 4,9 C 4,1 C 0,0 C 84 % 89 % 1023,1 hPa 0,0 l/m 0,0 km/h (0 Bft) NO 45 0 min 2,8 C 4,1 C 0,0 km/h (0 Bft)
26.03.2021 01:00 5,2 C 8,7 C 4,0 C 4,8 C 4,0 C 0,0 C 84 % 89 % 1023,1 hPa 0,0 l/m 0,0 km/h (0 Bft) NO 45 0 min 2,7 C 4,0 C 0,0 km/h (0 Bft)
26.03.2021 01:05 5,1 C 8,7 C 3,9 C 4,6 C 3,7 C 0,0 C 84 % 89 % 1023,1 hPa 0,0 l/m 0,0 km/h (0 Bft) NO 45 0 min 2,6 C 3,7 C 0,0 km/h (0 Bft)
26.03.2021 01:10 5,0 C 8,7 C 3,9 C 4,5 C 3,5 C 0,0 C 84 % 89 % 1022,6 hPa 0,0 l/m 0,0 km/h (0 Bft) NO 45 0 min 2,5 C 3,5 C 0,0 km/h (0 Bft)
26.03.2021 01:15 4,9 C 8,7 C 3,8 C 4,4 C 3,4 C 0,0 C 84 % 89 % 1022,6 hPa 0,0 l/m 0,0 km/h (0 Bft) NO 45 0 min 2,4 C 3,4 C 0,0 km/h (0 Bft)
26.03.2021 01:20 4,8 C 8,7 C 3,6 C 4,3 C 3,4 C 0,0 C 84 % 90 % 1022,6 hPa 0,0 l/m 0,0 km/h (0 Bft) NO 45 0 min 2,3 C 3,4 C 0,0 km/h (0 Bft)
26.03.2021 01:25 4,8 C 8,7 C 3,6 C 4,4 C 3,5 C 0,0 C 85 % 90 % 1022,6 hPa 0,0 l/m 0,0 km/h (0 Bft) NO 45 0 min 2,5 C 3,5 C 0,0 km/h (0 Bft)
26.03.2021 01:30 4,6 C 8,7 C 3,5 C 4,2 C 3,4 C 0,0 C 85 % 90 % 1022,6 hPa 0,0 l/m 0,0 km/h (0 Bft) NO 45 0 min 2,3 C 3,4 C 0,0 km/h (0 Bft)
26.03.2021 01:35 4,7 C 8,7 C 3,5 C 4,3 C 3,5 C 0,0 C 85 % 90 % 1022,6 hPa 0,0 l/m 0,0 km/h (0 Bft) NO 45 0 min 2,4 C 3,5 C 0,0 km/h (0 Bft)
26.03.2021 01:40 4,7 C 8,6 C 3,5 C 4,3 C 3,6 C 0,0 C 85 % 90 % 1022,6 hPa 0,0 l/m 0,2 km/h (0 Bft) NO 45 0 min 2,4 C 3,6 C 0,0 km/h (0 Bft)
26.03.2021 01:45 4,5 C 8,6 C 3,5 C 4,2 C 3,6 C 0,0 C 85 % 90 % 1022,6 hPa 0,0 l/m 0,2 km/h (0 Bft) NO 45 0 min 2,2 C 3,6 C 0,0 km/h (0 Bft)
26.03.2021 01:50 4,4 C 8,6 C 3,5 C 4,1 C 3,4 C 0,0 C 86 % 90 % 1022,6 hPa 0,0 l/m 0,0 km/h (0 Bft) NO 45 0 min 2,3 C 3,4 C 0,0 km/h (0 Bft)
26.03.2021 01:55 4,4 C 8,6 C 3,4 C 4,1 C 3,4 C 0,0 C 86 % 90 % 1022,6 hPa 0,0 l/m 0,0 km/h (0 Bft) NO 45 0 min 2,3 C 3,4 C 0,0 km/h (0 Bft)
26.03.2021 02:00 4,2 C 8,6 C 3,3 C 3,8 C 3,0 C 0,0 C 86 % 90 % 1022,6 hPa 0,0 l/m 0,0 km/h (0 Bft) NO 45 0 min 2,1 C 3,0 C 0,0 km/h (0 Bft)
26.03.2021 02:05 4,1 C 8,6 C 3,2 C 3,7 C 3,0 C 0,0 C 85 % 90 % 1022,6 hPa 0,0 l/m 0,0 km/h (0 Bft) NO 45 0 min 1,8 C 3,0 C 0,0 km/h (0 Bft)
26.03.2021 02:10 4,0 C 8,6 C 3,1 C 3,6 C 2,7 C 0,0 C 86 % 90 % 1023,1 hPa 0,0 l/m 0,0 km/h (0 Bft) NO 45 0 min 1,9 C 2,7 C 0,0 km/h (0 Bft)
26.03.2021 02:15 3,9 C 8,6 C 2,9 C 3,4 C 2,5 C 0,0 C 86 % 90 % 1023,1 hPa 0,0 l/m 0,0 km/h (0 Bft) NO 45 0 min 1,8 C 2,5 C 0,0 km/h (0 Bft)
26.03.2021 02:20 3,7 C 8,6 C 2,8 C 3,3 C 2,4 C 0,0 C 85 % 90 % 1023,1 hPa 0,0 l/m 0,0 km/h (0 Bft) NO 45 0 min 1,4 C 2,4 C 0,0 km/h (0 Bft)
26.03.2021 02:25 3,6 C 8,5 C 2,7 C 3,1 C 2,1 C 0,0 C 85 % 90 % 1023,1 hPa 0,0 l/m 0,0 km/h (0 Bft) NO 45 0 min 1,3 C 2,1 C 0,0 km/h (0 Bft)
26.03.2021 02:30 3,4 C 8,5 C 2,7 C 2,9 C 2,0 C 0,0 C 85 % 90 % 1022,9 hPa 0,0 l/m 0,0 km/h (0 Bft) NO 45 0 min 1,1 C 2,0 C 0,0 km/h (0 Bft)
26.03.2021 02:35 3,3 C 8,5 C 2,6 C 2,8 C 1,9 C 0,0 C 86 % 90 % 1022,9 hPa 0,0 l/m 0,0 km/h (0 Bft) NO 45 0 min 1,2 C 1,9 C 0,0 km/h (0 Bft)
26.03.2021 02:40 3,2 C 8,5 C 2,5 C 2,8 C 1,9 C 0,0 C 86 % 91 % 1022,9 hPa 0,0 l/m 0,0 km/h (0 Bft) NO 45 0 min 1,1 C 1,9 C 0,0 km/h (0 Bft)
26.03.2021 02:45 3,3 C 8,5 C 2,5 C 2,8 C 1,8 C 0,0 C 86 % 91 % 1022,9 hPa 0,0 l/m 0,0 km/h (0 Bft) NO 45 0 min 1,2 C 1,8 C 0,0 km/h (0 Bft)
26.03.2021 02:50 3,1 C 8,5 C 2,4 C 2,7 C 1,8 C 0,0 C 86 % 91 % 1022,4 hPa 0,0 l/m 0,0 km/h (0 Bft) NO 45 0 min 1,0 C 1,8 C 0,0 km/h (0 Bft)
26.03.2021 02:55 3,1 C 8,5 C 2,4 C 2,7 C 1,8 C 0,0 C 86 % 91 % 1022,4 hPa 0,0 l/m 0,0 km/h (0 Bft) NO 45 0 min 1,0 C 1,8 C 0,0 km/h (0 Bft)
26.03.2021 03:00 2,9 C 8,5 C 2,3 C 2,5 C 1,7 C 0,0 C 86 % 91 % 1022,4 hPa 0,0 l/m 0,0 km/h (0 Bft) NO 45 0 min 0,8 C 1,7 C 0,0 km/h (0 Bft)
26.03.2021 03:05 2,9 C 8,5 C 2,3 C 2,5 C 1,6 C 0,0 C 86 % 91 % 1022,4 hPa 0,0 l/m 0,0 km/h (0 Bft) NO 45 0 min 0,8 C 1,6 C 0,0 km/h (0 Bft)
26.03.2021 03:10 2,9 C 8,4 C 2,3 C 2,5 C 1,6 C 0,0 C 86 % 91 % 1022,5 hPa 0,0 l/m 0,0 km/h (0 Bft) NO 45 0 min 0,8 C 1,6 C 0,0 km/h (0 Bft)
26.03.2021 03:15 2,8 C 8,4 C 2,2 C 2,4 C 1,5 C 0,0 C 86 % 91 % 1022,5 hPa 0,0 l/m 0,0 km/h (0 Bft) NO 45 0 min 0,7 C 1,5 C 0,0 km/h (0 Bft)
26.03.2021 03:20 2,8 C 8,4 C 2,1 C 2,3 C 1,4 C 0,0 C 87 % 91 % 1022,5 hPa 0,0 l/m 0,0 km/h (0 Bft) NO 45 0 min 0,9 C 1,4 C 0,0 km/h (0 Bft)
26.03.2021 03:25 2,7 C 8,4 C 2,1 C 2,2 C 1,3 C 0,0 C 87 % 91 % 1022,5 hPa 0,0 l/m 0,0 km/h (0 Bft) NO 45 0 min 0,8 C 1,3 C 0,0 km/h (0 Bft)
26.03.2021 03:30 2,7 C 8,4 C 2,0 C 2,2 C 1,3 C 0,0 C 87 % 91 % 1022,6 hPa 0,0 l/m 0,0 km/h (0 Bft) NO 45 0 min 0,8 C 1,3 C 0,0 km/h (0 Bft)
26.03.2021 03:35 2,6 C 8,4 C 1,9 C 2,2 C 1,3 C 0,0 C 87 % 91 % 1022,6 hPa 0,0 l/m 0,0 km/h (0 Bft) NO 45 0 min 0,7 C 1,3 C 0,0 km/h (0 Bft)
26.03.2021 03:40 2,5 C 8,4 C 1,8 C 2,1 C 1,4 C 0,0 C 87 % 91 % 1022,6 hPa 0,0 l/m 0,0 km/h (0 Bft) NO 45 0 min 0,6 C 1,4 C 0,0 km/h (0 Bft)
26.03.2021 03:45 2,5 C 8,4 C 1,8 C 2,1 C 1,3 C 0,0 C 87 % 91 % 1022,6 hPa 0,0 l/m 0,0 km/h (0 Bft) NO 45 0 min 0,6 C 1,3 C 0,0 km/h (0 Bft)
26.03.2021 03:50 2,7 C 8,4 C 1,9 C 2,3 C 1,5 C 0,0 C 87 % 91 % 1022,7 hPa 0,0 l/m 0,0 km/h (0 Bft) NO 45 0 min 0,8 C 1,5 C 0,0 km/h (0 Bft)
26.03.2021 03:55 2,6 C 8,3 C 1,9 C 2,2 C 1,5 C 0,0 C 87 % 91 % 1022,7 hPa 0,0 l/m 0,0 km/h (0 Bft) NO 45 0 min 0,7 C 1,5 C 0,0 km/h (0 Bft)
26.03.2021 04:00 2,5 C 8,3 C 1,9 C 2,1 C 1,3 C 0,0 C 87 % 91 % 1022,7 hPa 0,0 l/m 0,0 km/h (0 Bft) NO 45 0 min 0,6 C 1,3 C 0,0 km/h (0 Bft)
26.03.2021 04:05 2,4 C 8,3 C 1,8 C 2,0 C 1,3 C 0,0 C 87 % 91 % 1022,7 hPa 0,0 l/m 0,0 km/h (0 Bft) NO 45 0 min 0,5 C 1,3 C 0,0 km/h (0 Bft)
26.03.2021 04:10 2,5 C 8,3 C 1,4 C 2,1 C 1,3 C 0,0 C 87 % 91 % 1022,6 hPa 0,0 l/m 0,0 km/h (0 Bft) NO 45 0 min 0,6 C 1,3 C 0,0 km/h (0 Bft)
26.03.2021 04:15 2,4 C 8,3 C 1,5 C 2,0 C 1,3 C 0,0 C 87 % 91 % 1022,6 hPa 0,0 l/m 0,0 km/h (0 Bft) NO 45 0 min 0,5 C 1,3 C 0,0 km/h (0 Bft)
26.03.2021 04:20 2,3 C 8,3 C 1,5 C 1,9 C 1,1 C 0,0 C 87 % 91 % 1022,6 hPa 0,0 l/m 0,0 km/h (0 Bft) NO 45 0 min 0,4 C 1,1 C 0,0 km/h (0 Bft)
26.03.2021 04:25 2,1 C 8,3 C 1,4 C 1,7 C 0,9 C 0,0 C 87 % 91 % 1022,6 hPa 0,0 l/m 0,0 km/h (0 Bft) NO 45 0 min 0,2 C 0,9 C 0,0 km/h (0 Bft)
26.03.2021 04:30 2,0 C 8,3 C 1,4 C 1,6 C 0,7 C 0,0 C 87 % 91 % 1022,8 hPa 0,0 l/m 0,0 km/h (0 Bft) NO 45 0 min 0,1 C 0,7 C 0,0 km/h (0 Bft)
26.03.2021 04:35 2,0 C 8,2 C 1,4 C 1,6 C 0,7 C 0,0 C 87 % 91 % 1022,8 hPa 0,0 l/m 0,0 km/h (0 Bft) NO 45 0 min 0,1 C 0,7 C 0,0 km/h (0 Bft)
26.03.2021 04:40 1,9 C 8,2 C 1,4 C 1,5 C 0,6 C 0,0 C 87 % 91 % 1022,8 hPa 0,0 l/m 0,0 km/h (0 Bft) NO 45 0 min -0,0 C 0,6 C 0,0 km/h (0 Bft)
26.03.2021 04:45 1,8 C 8,2 C 1,4 C 1,4 C 0,5 C 0,0 C 87 % 91 % 1022,8 hPa 0,0 l/m 0,0 km/h (0 Bft) NO 45 0 min -0,1 C 0,5 C 0,0 km/h (0 Bft)
26.03.2021 04:50 1,7 C 8,2 C 1,3 C 1,2 C 0,3 C 0,0 C 87 % 91 % 1022,2 hPa 0,0 l/m 0,0 km/h (0 Bft) NO 45 0 min -0,2 C 0,3 C 0,0 km/h (0 Bft)
26.03.2021 04:55 1,7 C 8,2 C 1,3 C 1,2 C 0,2 C 0,0 C 87 % 92 % 1022,2 hPa 0,0 l/m 0,0 km/h (0 Bft) NO 45 0 min -0,2 C 0,2 C 0,0 km/h (0 Bft)
26.03.2021 05:00 1,6 C 8,2 C 1,2 C 1,1 C 0,2 C 0,0 C 87 % 92 % 1022,2 hPa 0,0 l/m 0,0 km/h (0 Bft) NO 45 0 min -0,3 C 0,2 C 0,0 km/h (0 Bft)
26.03.2021 05:05 1,7 C 8,2 C 1,2 C 1,2 C 0,2 C 0,0 C 87 % 92 % 1022,2 hPa 0,0 l/m 0,0 km/h (0 Bft) NO 45 0 min -0,2 C 0,2 C 0,0 km/h (0 Bft)
26.03.2021 05:10 1,6 C 8,1 C 1,1 C 1,1 C 0,2 C 0,0 C 87 % 92 % 1022,5 hPa 0,0 l/m 0,0 km/h (0 Bft) NO 45 0 min -0,3 C 0,2 C 0,0 km/h (0 Bft)
26.03.2021 05:15 1,5 C 8,1 C 1,1 C 1,1 C 0,2 C 0,0 C 87 % 92 % 1022,5 hPa 0,0 l/m 0,0 km/h (0 Bft) NO 45 0 min -0,4 C 0,2 C 0,0 km/h (0 Bft)
26.03.2021 05:20 1,4 C 8,1 C 1,0 C 1,0 C 0,2 C 0,0 C 87 % 92 % 1022,5 hPa 0,0 l/m 0,0 km/h (0 Bft) NO 45 0 min -0,5 C 0,2 C 0,0 km/h (0 Bft)
26.03.2021 05:25 1,5 C 8,1 C 1,0 C 1,1 C 0,3 C 0,0 C 87 % 92 % 1022,5 hPa 0,0 l/m 0,0 km/h (0 Bft) NO 45 0 min -0,4 C 0,3 C 0,0 km/h (0 Bft)
26.03.2021 05:30 1,5 C 8,1 C 1,0 C 1,2 C 0,6 C 0,0 C 87 % 92 % 1022,9 hPa 0,0 l/m 0,0 km/h (0 Bft) NO 45 0 min -0,4 C 0,6 C 0,0 km/h (0 Bft)
26.03.2021 05:35 1,5 C 8,1 C 1,0 C 1,2 C 0,5 C 0,0 C 88 % 92 % 1022,9 hPa 0,0 l/m 0,0 km/h (0 Bft) NO 45 0 min -0,3 C 0,5 C 0,0 km/h (0 Bft)
26.03.2021 05:40 1,5 C 8,1 C 1,2 C 1,2 C 0,6 C 0,0 C 88 % 92 % 1022,9 hPa 0,0 l/m 0,0 km/h (0 Bft) NO 45 0 min -0,3 C 0,6 C 0,0 km/h (0 Bft)
26.03.2021 05:45 1,5 C 8,1 C 1,2 C 1,2 C 0,6 C 0,0 C 88 % 92 % 1022,9 hPa 0,0 l/m 0,0 km/h (0 Bft) NO 45 0 min -0,3 C 0,6 C 0,0 km/h (0 Bft)
26.03.2021 05:50 1,5 C 8,1 C 1,1 C 1,2 C 0,7 C 0,0 C 88 % 92 % 1022,8 hPa 0,0 l/m 0,0 km/h (0 Bft) NO 45 0 min -0,3 C 0,7 C 0,0 km/h (0 Bft)
26.03.2021 05:55 1,5 C 8,1 C 0,9 C 1,2 C 0,6 C 0,0 C 88 % 92 % 1022,8 hPa 0,0 l/m 0,0 km/h (0 Bft) NO 45 0 min -0,3 C 0,6 C 0,0 km/h (0 Bft)
26.03.2021 06:00 1,4 C 8,0 C 0,9 C 1,1 C 0,6 C 0,0 C 88 % 92 % 1022,8 hPa 0,0 l/m 0,0 km/h (0 Bft) NO 45 0 min -0,4 C 0,6 C 0,0 km/h (0 Bft)
26.03.2021 06:05 1,3 C 8,0 C 0,9 C 1,0 C 0,5 C 0,0 C 88 % 92 % 1022,8 hPa 0,0 l/m 0,0 km/h (0 Bft) NO 45 0 min -0,5 C 0,5 C 0,0 km/h (0 Bft)
26.03.2021 06:10 1,2 C 8,0 C 0,9 C 0,9 C 0,3 C 0,0 C 88 % 92 % 1022,9 hPa 0,0 l/m 0,0 km/h (0 Bft) NO 45 0 min -0,6 C 0,3 C 0,0 km/h (0 Bft)
26.03.2021 06:15 1,2 C 8,0 C 0,9 C 0,9 C 0,3 C 0,0 C 88 % 92 % 1022,9 hPa 0,0 l/m 0,0 km/h (0 Bft) NO 45 0 min -0,6 C 0,3 C 0,0 km/h (0 Bft)
26.03.2021 06:20 1,1 C 8,0 C 0,9 C 0,9 C 0,4 C 0,0 C 88 % 92 % 1022,9 hPa 0,0 l/m 0,0 km/h (0 Bft) NO 45 0 min -0,7 C 0,4 C 0,0 km/h (0 Bft)
26.03.2021 06:25 1,0 C 8,0 C 0,9 C 0,8 C 0,5 C 0,0 C 88 % 92 % 1022,9 hPa 0,0 l/m 0,0 km/h (0 Bft) NO 45 0 min -0,8 C 0,5 C 0,0 km/h (0 Bft)
26.03.2021 06:30 1,1 C 8,0 C 1,0 C 1,1 C 1,0 C 0,0 C 88 % 92 % 1023,0 hPa 0,0 l/m 0,0 km/h (0 Bft) NO 45 0 min -0,7 C 1,0 C 0,0 km/h (0 Bft)
26.03.2021 06:35 1,1 C 8,0 C 1,1 C 1,3 C 1,3 C 0,2 C 88 % 92 % 1023,0 hPa 0,0 l/m 0,0 km/h (0 Bft) NO 45 0 min -0,7 C 1,3 C 0,0 km/h (0 Bft)
26.03.2021 06:40 1,1 C 8,0 C 1,3 C 1,8 C 1,8 C 0,7 C 88 % 92 % 1023,0 hPa 0,0 l/m 0,0 km/h (0 Bft) NO 45 0 min -0,7 C 1,8 C 0,0 km/h (0 Bft)
26.03.2021 06:45 1,1 C 8,0 C 1,4 C 2,3 C 2,3 C 1,2 C 88 % 92 % 1023,0 hPa 0,0 l/m 0,0 km/h (0 Bft) NO 45 5 min -0,7 C 2,3 C 0,0 km/h (0 Bft)
26.03.2021 06:50 1,2 C 8,0 C 1,9 C 3,0 C 3,0 C 1,8 C 88 % 92 % 1023,1 hPa 0,0 l/m 0,0 km/h (0 Bft) NO 45 5 min -0,6 C 3,0 C 0,0 km/h (0 Bft)
26.03.2021 06:55 1,3 C 8,0 C 2,1 C 3,5 C 3,5 C 2,2 C 88 % 92 % 1023,1 hPa 0,0 l/m 0,0 km/h (0 Bft) NO 45 5 min -0,5 C 3,5 C 0,0 km/h (0 Bft)
26.03.2021 07:00 1,6 C 8,0 C 2,6 C 4,0 C 4,0 C 2,4 C 88 % 92 % 1023,1 hPa 0,0 l/m 0,0 km/h (0 Bft) NO 45 5 min -0,2 C 4,0 C 0,0 km/h (0 Bft)
26.03.2021 07:05 1,9 C 8,0 C 3,0 C 4,2 C 4,2 C 2,3 C 88 % 92 % 1023,1 hPa 0,0 l/m 0,0 km/h (0 Bft) NO 45 5 min 0,1 C 4,2 C 0,0 km/h (0 Bft)
26.03.2021 07:10 2,0 C 8,0 C 3,4 C 4,4 C 4,4 C 2,4 C 88 % 92 % 1022,9 hPa 0,0 l/m 0,0 km/h (0 Bft) NO 45 5 min 0,2 C 4,4 C 0,0 km/h (0 Bft)
26.03.2021 07:15 2,2 C 8,0 C 3,5 C 4,6 C 4,6 C 2,4 C 88 % 92 % 1022,9 hPa 0,0 l/m 0,0 km/h (0 Bft) NO 45 5 min 0,4 C 4,6 C 0,0 km/h (0 Bft)
26.03.2021 07:20 2,1 C 7,8 C 3,4 C 4,9 C 4,9 C 2,8 C 88 % 92 % 1022,9 hPa 0,0 l/m 0,0 km/h (0 Bft) NO 45 5 min 0,3 C 4,9 C 0,0 km/h (0 Bft)
26.03.2021 07:25 2,1 C 7,8 C 3,3 C 4,6 C 4,6 C 2,5 C 88 % 92 % 1022,9 hPa 0,0 l/m 0,0 km/h (0 Bft) NO 45 5 min 0,3 C 4,6 C 0,0 km/h (0 Bft)
26.03.2021 07:30 2,3 C 8,0 C 3,6 C 4,6 C 4,6 C 2,3 C 88 % 92 % 1023,1 hPa 0,0 l/m 0,0 km/h (0 Bft) NO 45 0 min 0,5 C 4,6 C 0,0 km/h (0 Bft)
26.03.2021 07:35 2,4 C 7,8 C 3,9 C 4,8 C 4,8 C 2,4 C 88 % 92 % 1023,1 hPa 0,0 l/m 0,0 km/h (0 Bft) NO 45 0 min 0,6 C 4,8 C 0,0 km/h (0 Bft)
26.03.2021 07:40 2,8 C 7,6 C 4,4 C 5,3 C 5,3 C 2,5 C 88 % 92 % 1023,1 hPa 0,0 l/m 0,0 km/h (0 Bft) NO 45 0 min 1,0 C 5,3 C 0,0 km/h (0 Bft)
26.03.2021 07:45 2,8 C 7,6 C 4,7 C 5,5 C 5,5 C 2,7 C 88 % 92 % 1023,1 hPa 0,0 l/m 0,0 km/h (0 Bft) NO 45 5 min 1,0 C 5,5 C 0,0 km/h (0 Bft)
26.03.2021 07:50 3,2 C 7,7 C 5,1 C 5,9 C 5,9 C 2,7 C 88 % 92 % 1023,2 hPa 0,0 l/m 0,0 km/h (0 Bft) NO 45 0 min 1,4 C 5,9 C 0,0 km/h (0 Bft)
26.03.2021 07:55 3,3 C 7,6 C 5,1 C 6,1 C 6,1 C 2,8 C 88 % 92 % 1023,2 hPa 0,0 l/m 0,0 km/h (0 Bft) NO 45 0 min 1,5 C 6,1 C 0,0 km/h (0 Bft)
26.03.2021 08:00 3,6 C 7,6 C 5,2 C 6,4 C 6,4 C 2,8 C 88 % 91 % 1023,2 hPa 0,0 l/m 0,0 km/h (0 Bft) NO 45 0 min 1,8 C 6,4 C 0,0 km/h (0 Bft)
26.03.2021 08:05 3,7 C 7,4 C 5,5 C 6,9 C 6,9 C 3,2 C 88 % 91 % 1023,2 hPa 0,0 l/m 0,0 km/h (0 Bft) NO 45 0 min 1,9 C 6,9 C 0,0 km/h (0 Bft)
26.03.2021 08:10 4,1 C 7,6 C 5,7 C 7,9 C 7,9 C 3,8 C 88 % 91 % 1023,1 hPa 0,0 l/m 0,0 km/h (0 Bft) NO 45 5 min 2,3 C 7,9 C 0,0 km/h (0 Bft)
26.03.2021 08:15 4,4 C 7,4 C 5,9 C 8,4 C 8,4 C 4,0 C 88 % 91 % 1023,1 hPa 0,0 l/m 0,0 km/h (0 Bft) NO 45 5 min 2,6 C 8,4 C 0,0 km/h (0 Bft)
26.03.2021 08:20 4,7 C 7,4 C 6,4 C 9,8 C 9,8 C 5,1 C 88 % 91 % 1023,1 hPa 0,0 l/m 0,0 km/h (0 Bft) O-NO 67 5 min 2,9 C 9,8 C 0,0 km/h (0 Bft)
26.03.2021 08:25 4,9 C 7,4 C 6,6 C 10,6 C 10,6 C 5,7 C 88 % 90 % 1023,1 hPa 0,0 l/m 0,0 km/h (0 Bft) O-NO 67 5 min 3,1 C 10,6 C 0,0 km/h (0 Bft)
26.03.2021 08:30 5,3 C 7,4 C 7,0 C 10,8 C 10,8 C 5,5 C 88 % 90 % 1022,9 hPa 0,0 l/m 0,2 km/h (0 Bft) O-NO 67 5 min 3,5 C 10,8 C 3,1 km/h (1 Bft)
26.03.2021 08:35 5,5 C 7,4 C 7,2 C 12,1 C 12,1 C 6,6 C 88 % 90 % 1022,9 hPa 0,0 l/m 0,6 km/h (0 Bft) O 90 5 min 3,7 C 12,1 C 4,3 km/h (1 Bft)
26.03.2021 08:40 6,0 C 7,4 C 7,5 C 13,5 C 13,5 C 7,5 C 88 % 88 % 1022,9 hPa 0,0 l/m 1,6 km/h (1 Bft) S 180 5 min 4,2 C 13,5 C 6,8 km/h (2 Bft)
26.03.2021 08:45 6,7 C 7,4 C 7,8 C 13,9 C 13,9 C 7,2 C 88 % 88 % 1022,9 hPa 0,0 l/m 2,4 km/h (1 Bft) SW 225 5 min 4,9 C 13,9 C 1,8 km/h (1 Bft)
26.03.2021 08:50 7,4 C 7,4 C 8,3 C 13,2 C 13,2 C 5,8 C 88 % 87 % 1022,9 hPa 0,0 l/m 2,4 km/h (1 Bft) S 180 5 min 5,5 C 13,2 C 4,2 km/h (1 Bft)
26.03.2021 08:55 8,1 C 7,4 C 8,8 C 12,7 C 12,7 C 4,6 C 88 % 86 % 1022,9 hPa 0,0 l/m 2,4 km/h (1 Bft) S-SO 157 5 min 6,2 C 12,7 C 8,2 km/h (2 Bft)
26.03.2021 09:00 8,9 C 7,4 C 9,5 C 14,1 C 14,1 C 5,2 C 87 % 84 % 1022,9 hPa 0,0 l/m 3,7 km/h (1 Bft) SO 135 5 min 6,9 C 14,1 C 4,0 km/h (1 Bft)
26.03.2021 09:05 9,5 C 7,4 C 9,7 C 14,6 C 14,6 C 5,1 C 86 % 81 % 1022,9 hPa 0,0 l/m 3,4 km/h (1 Bft) O-NO 67 5 min 7,3 C 14,6 C 2,6 km/h (1 Bft)
26.03.2021 09:10 9,8 C 7,4 C 10,1 C 15,3 C 15,3 C 5,5 C 84 % 80 % 1023,1 hPa 0,0 l/m 2,6 km/h (1 Bft) S 180 5 min 7,2 C 15,3 C 0,0 km/h (0 Bft)
26.03.2021 09:15 10,0 C 7,4 C 10,4 C 15,4 C 15,4 C 5,4 C 82 % 77 % 1023,1 hPa 0,0 l/m 3,2 km/h (1 Bft) S 180 5 min 7,1 C 15,4 C 5,1 km/h (1 Bft)
26.03.2021 09:20 10,3 C 7,4 C 10,9 C 14,5 C 14,5 C 4,2 C 78 % 75 % 1023,1 hPa 0,0 l/m 4,8 km/h (1 Bft) W-SW 247 5 min 6,6 C 14,5 C 12,9 km/h (3 Bft)
26.03.2021 09:25 10,4 C 7,4 C 11,1 C 13,9 C 13,9 C 3,5 C 76 % 72 % 1023,1 hPa 0,0 l/m 5,5 km/h (1 Bft) S-SO 157 5 min 6,4 C 13,9 C 2,7 km/h (1 Bft)
26.03.2021 09:30 10,7 C 7,3 C 11,7 C 13,6 C 13,6 C 2,9 C 74 % 71 % 1023,1 hPa 0,0 l/m 5,6 km/h (1 Bft) O-SO 112 0 min 6,3 C 13,6 C 17,1 km/h (3 Bft)
26.03.2021 09:35 10,8 C 7,3 C 12,2 C 14,3 C 14,3 C 3,5 C 73 % 69 % 1023,1 hPa 0,0 l/m 5,1 km/h (1 Bft) SO 135 5 min 6,2 C 14,3 C 7,7 km/h (2 Bft)
26.03.2021 09:40 11,1 C 7,3 C 13,1 C 14,2 C 14,2 C 3,1 C 72 % 66 % 1023,1 hPa 0,0 l/m 4,3 km/h (1 Bft) S-SW 202 0 min 6,2 C 14,2 C 4,8 km/h (1 Bft)
26.03.2021 09:45 11,2 C 7,3 C 13,7 C 14,7 C 14,7 C 3,5 C 70 % 66 % 1023,1 hPa 0,0 l/m 4,7 km/h (1 Bft) SO 135 5 min 5,9 C 14,7 C 11,3 km/h (2 Bft)
26.03.2021 09:50 11,3 C 7,3 C 13,7 C 14,2 C 14,2 C 2,9 C 69 % 62 % 1022,8 hPa 0,0 l/m 4,0 km/h (1 Bft) S-SO 157 0 min 5,8 C 14,2 C 5,1 km/h (1 Bft)
26.03.2021 09:55 11,5 C 7,3 C 13,7 C 14,1 C 14,1 C 2,6 C 68 % 61 % 1022,8 hPa 0,0 l/m 5,1 km/h (1 Bft) SW 225 0 min 5,8 C 14,1 C 7,7 km/h (2 Bft)
26.03.2021 10:00 11,5 C 7,3 C 13,5 C 14,1 C 14,1 C 2,6 C 68 % 61 % 1022,8 hPa 0,0 l/m 4,8 km/h (1 Bft) S-SW 202 0 min 5,8 C 14,1 C 6,9 km/h (2 Bft)
26.03.2021 10:05 11,6 C 7,3 C 13,3 C 14,8 C 14,8 C 3,2 C 68 % 62 % 1022,8 hPa 0,0 l/m 4,2 km/h (1 Bft) S 180 0 min 5,9 C 14,8 C 7,2 km/h (2 Bft)
26.03.2021 10:10 11,7 C 7,3 C 13,0 C 14,6 C 14,6 C 2,9 C 68 % 62 % 1023,1 hPa 0,0 l/m 3,9 km/h (1 Bft) S-SO 157 0 min 6,0 C 14,6 C 4,3 km/h (1 Bft)
26.03.2021 10:15 11,9 C 7,3 C 12,7 C 14,4 C 14,4 C 2,5 C 68 % 63 % 1023,1 hPa 0,0 l/m 4,0 km/h (1 Bft) O-NO 67 0 min 6,2 C 14,4 C 5,6 km/h (1 Bft)
26.03.2021 10:20 12,1 C 7,4 C 12,7 C 14,5 C 14,5 C 2,4 C 67 % 64 % 1023,1 hPa 0,0 l/m 4,7 km/h (1 Bft) W 270 0 min 6,2 C 14,5 C 9,5 km/h (2 Bft)
26.03.2021 10:25 12,1 C 7,4 C 12,8 C 14,4 C 14,4 C 2,3 C 66 % 63 % 1023,1 hPa 0,0 l/m 5,5 km/h (1 Bft) SO 135 0 min 5,9 C 14,4 C 8,7 km/h (2 Bft)
26.03.2021 10:30 12,1 C 7,4 C 12,8 C 14,4 C 14,4 C 2,3 C 66 % 62 % 1023,4 hPa 0,0 l/m 5,1 km/h (1 Bft) W-SW 247 0 min 5,9 C 14,4 C 5,0 km/h (1 Bft)
26.03.2021 10:35 12,0 C 7,4 C 12,9 C 14,4 C 14,4 C 2,4 C 65 % 63 % 1023,4 hPa 0,0 l/m 5,8 km/h (2 Bft) SW 225 0 min 5,6 C 14,4 C 12,4 km/h (3 Bft)
26.03.2021 10:40 12,0 C 7,4 C 12,7 C 14,3 C 14,3 C 2,3 C 66 % 64 % 1023,4 hPa 0,0 l/m 5,6 km/h (1 Bft) O-NO 67 0 min 5,8 C 14,3 C 4,5 km/h (1 Bft)
26.03.2021 10:45 12,0 C 7,4 C 12,7 C 14,2 C 14,2 C 2,2 C 67 % 64 % 1023,4 hPa 0,0 l/m 4,5 km/h (1 Bft) S-SO 157 0 min 6,1 C 14,2 C 10,0 km/h (2 Bft)
26.03.2021 10:50 12,3 C 7,4 C 12,7 C 14,4 C 14,4 C 2,1 C 66 % 64 % 1023,2 hPa 0,0 l/m 4,7 km/h (1 Bft) S-SW 202 0 min 6,1 C 14,4 C 8,4 km/h (2 Bft)
26.03.2021 10:55 12,3 C 7,4 C 12,7 C 14,2 C 14,2 C 1,9 C 65 % 63 % 1023,2 hPa 0,0 l/m 6,4 km/h (2 Bft) SW 225 0 min 5,9 C 14,2 C 10,0 km/h (2 Bft)
26.03.2021 11:00 12,2 C 7,5 C 12,9 C 14,3 C 14,3 C 2,1 C 65 % 64 % 1023,2 hPa 0,0 l/m 7,2 km/h (2 Bft) SW 225 0 min 5,8 C 14,3 C 8,7 km/h (2 Bft)
26.03.2021 11:05 12,3 C 7,5 C 13,3 C 14,7 C 14,7 C 2,4 C 65 % 63 % 1023,2 hPa 0,0 l/m 7,1 km/h (2 Bft) S-SO 157 0 min 5,9 C 14,7 C 5,0 km/h (1 Bft)
26.03.2021 11:10 12,7 C 7,5 C 15,3 C 15,4 C 15,4 C 2,7 C 65 % 59 % 1023,3 hPa 0,0 l/m 5,6 km/h (1 Bft) S-SO 157 0 min 6,3 C 15,4 C 5,6 km/h (1 Bft)
26.03.2021 11:15 12,6 C 7,5 C 14,8 C 15,5 C 15,5 C 2,9 C 65 % 58 % 1023,3 hPa 0,0 l/m 4,7 km/h (1 Bft) W-SW 247 0 min 6,2 C 15,5 C 7,9 km/h (2 Bft)
26.03.2021 11:20 12,7 C 7,5 C 15,9 C 15,5 C 15,5 C 2,8 C 65 % 58 % 1023,3 hPa 0,0 l/m 4,7 km/h (1 Bft) SW 225 0 min 6,3 C 15,5 C 9,3 km/h (2 Bft)
26.03.2021 11:25 12,8 C 7,5 C 16,9 C 16,4 C 16,4 C 3,6 C 65 % 55 % 1023,3 hPa 0,0 l/m 4,2 km/h (1 Bft) S 180 5 min 6,4 C 16,4 C 5,6 km/h (1 Bft)
26.03.2021 11:30 13,1 C 7,6 C 17,5 C 17,3 C 17,3 C 4,2 C 66 % 54 % 1023,3 hPa 0,0 l/m 2,9 km/h (1 Bft) O 90 5 min 6,9 C 17,3 C 8,4 km/h (2 Bft)
26.03.2021 11:35 13,2 C 7,6 C 17,4 C 17,3 C 17,3 C 4,1 C 65 % 53 % 1023,3 hPa 0,0 l/m 3,1 km/h (1 Bft) N 360 5 min 6,8 C 17,3 C 2,3 km/h (1 Bft)
26.03.2021 11:40 13,2 C 7,6 C 18,1 C 17,1 C 17,1 C 3,9 C 64 % 52 % 1023,3 hPa 0,0 l/m 4,8 km/h (1 Bft) S-SW 202 5 min 6,5 C 17,1 C 17,2 km/h (3 Bft)
26.03.2021 11:45 13,1 C 7,6 C 18,1 C 17,1 C 17,1 C 4,0 C 64 % 51 % 1023,3 hPa 0,0 l/m 5,5 km/h (1 Bft) SW 225 5 min 6,4 C 17,1 C 5,1 km/h (1 Bft)
26.03.2021 11:50 13,2 C 7,6 C 17,8 C 17,4 C 17,4 C 4,2 C 64 % 51 % 1022,9 hPa 0,0 l/m 6,8 km/h (2 Bft) W-SW 247 5 min 6,5 C 17,4 C 6,0 km/h (2 Bft)
26.03.2021 11:55 13,2 C 7,6 C 17,9 C 17,7 C 17,7 C 4,5 C 65 % 52 % 1022,9 hPa 0,0 l/m 6,1 km/h (2 Bft) S-SW 202 5 min 6,8 C 17,7 C 5,5 km/h (1 Bft)
26.03.2021 12:00 13,3 C 7,7 C 18,0 C 18,1 C 18,1 C 4,8 C 65 % 52 % 1022,9 hPa 0,0 l/m 5,1 km/h (1 Bft) W-SW 247 5 min 6,9 C 18,1 C 6,9 km/h (2 Bft)
26.03.2021 12:05 13,3 C 7,7 C 18,2 C 18,2 C 18,2 C 4,9 C 65 % 53 % 1022,9 hPa 0,0 l/m 5,5 km/h (1 Bft) SW 225 5 min 6,9 C 18,2 C 6,1 km/h (2 Bft)
26.03.2021 12:10 13,3 C 7,7 C 18,2 C 18,2 C 18,2 C 4,9 C 65 % 53 % 1023,1 hPa 0,0 l/m 5,5 km/h (1 Bft) SW 225 5 min 6,9 C 18,2 C 6,1 km/h (2 Bft)
26.03.2021 12:15 13,3 C 7,7 C 18,2 C 18,4 C 18,4 C 5,1 C 65 % 53 % 1023,1 hPa 0,0 l/m 6,3 km/h (2 Bft) W-SW 247 5 min 6,9 C 18,4 C 9,5 km/h (2 Bft)
26.03.2021 12:20 13,7 C 7,7 C 16,6 C 18,2 C 18,2 C 4,5 C 64 % 54 % 1023,1 hPa 0,0 l/m 6,4 km/h (2 Bft) SW 225 5 min 7,0 C 18,2 C 10,1 km/h (2 Bft)
26.03.2021 12:25 13,9 C 7,8 C 16,7 C 18,5 C 18,5 C 4,6 C 64 % 55 % 1023,1 hPa 0,0 l/m 5,0 km/h (1 Bft) S-SW 202 5 min 7,2 C 18,5 C 5,1 km/h (1 Bft)
26.03.2021 12:30 14,1 C 7,8 C 16,7 C 19,1 C 19,1 C 5,0 C 63 % 54 % 1022,4 hPa 0,0 l/m 4,0 km/h (1 Bft) S 180 5 min 7,2 C 19,1 C 9,5 km/h (2 Bft)
26.03.2021 12:35 14,3 C 7,8 C 16,8 C 19,2 C 19,2 C 4,9 C 62 % 53 % 1022,4 hPa 0,0 l/m 4,3 km/h (1 Bft) W-SW 247 5 min 7,1 C 19,2 C 7,7 km/h (2 Bft)
26.03.2021 12:40 14,0 C 7,8 C 17,3 C 18,9 C 18,9 C 4,9 C 62 % 54 % 1022,4 hPa 0,0 l/m 6,8 km/h (2 Bft) S 180 5 min 6,8 C 18,9 C 8,4 km/h (2 Bft)
26.03.2021 12:45 14,1 C 7,8 C 17,0 C 18,7 C 18,7 C 4,6 C 63 % 55 % 1022,4 hPa 0,0 l/m 6,8 km/h (2 Bft) S-SW 202 5 min 7,2 C 18,7 C 11,7 km/h (2 Bft)
26.03.2021 12:50 14,3 C 7,9 C 17,1 C 18,7 C 18,7 C 4,4 C 62 % 54 % 1022,3 hPa 0,0 l/m 6,1 km/h (2 Bft) S 180 5 min 7,1 C 18,7 C 6,3 km/h (2 Bft)
26.03.2021 12:55 14,3 C 7,9 C 17,1 C 19,1 C 19,1 C 4,8 C 62 % 54 % 1022,3 hPa 0,0 l/m 5,3 km/h (1 Bft) NW 315 5 min 7,1 C 19,1 C 4,0 km/h (1 Bft)
26.03.2021 13:00 14,7 C 7,9 C 17,3 C 20,1 C 20,1 C 5,4 C 62 % 53 % 1022,3 hPa 0,0 l/m 3,9 km/h (1 Bft) SW 225 5 min 7,5 C 20,1 C 4,3 km/h (1 Bft)
26.03.2021 13:05 14,8 C 7,9 C 17,3 C 20,1 C 20,1 C 5,3 C 61 % 53 % 1022,3 hPa 0,0 l/m 4,2 km/h (1 Bft) S-SO 157 5 min 7,4 C 20,1 C 10,1 km/h (2 Bft)
26.03.2021 13:10 14,7 C 8,0 C 17,4 C 20,0 C 20,0 C 5,3 C 60 % 52 % 1022,1 hPa 0,0 l/m 5,8 km/h (2 Bft) S 180 5 min 7,0 C 20,0 C 12,7 km/h (3 Bft)
26.03.2021 13:15 14,7 C 8,0 C 16,9 C 19,2 C 19,2 C 4,5 C 60 % 52 % 1022,1 hPa 0,0 l/m 6,6 km/h (2 Bft) O-NO 67 5 min 7,0 C 19,2 C 5,5 km/h (1 Bft)
26.03.2021 13:20 14,7 C 8,0 C 16,1 C 18,7 C 18,7 C 4,0 C 61 % 55 % 1022,1 hPa 0,0 l/m 4,5 km/h (1 Bft) S 180 5 min 7,3 C 18,7 C 3,2 km/h (1 Bft)
26.03.2021 13:25 14,7 C 8,0 C 16,1 C 18,5 C 18,5 C 3,8 C 60 % 56 % 1022,1 hPa 0,0 l/m 4,2 km/h (1 Bft) W-SW 247 5 min 7,0 C 18,5 C 8,2 km/h (2 Bft)
26.03.2021 13:30 14,7 C 8,0 C 15,9 C 17,9 C 17,9 C 3,2 C 59 % 55 % 1021,9 hPa 0,0 l/m 6,3 km/h (2 Bft) W-SW 247 0 min 6,8 C 17,9 C 12,1 km/h (2 Bft)
26.03.2021 13:35 14,5 C 8,0 C 15,7 C 17,3 C 17,3 C 2,8 C 60 % 55 % 1021,9 hPa 0,0 l/m 6,4 km/h (2 Bft) S 180 0 min 6,8 C 17,3 C 4,3 km/h (1 Bft)
26.03.2021 13:40 14,4 C 8,1 C 15,4 C 17,5 C 17,5 C 3,1 C 60 % 57 % 1021,9 hPa 0,0 l/m 6,1 km/h (2 Bft) W-SW 247 0 min 6,7 C 17,5 C 6,1 km/h (2 Bft)
26.03.2021 13:45 14,5 C 8,1 C 15,2 C 17,3 C 17,3 C 2,8 C 59 % 57 % 1021,9 hPa 0,0 l/m 5,6 km/h (1 Bft) W-SW 247 0 min 6,6 C 17,3 C 5,6 km/h (1 Bft)
26.03.2021 13:50 14,8 C 8,1 C 15,4 C 18,0 C 18,0 C 3,2 C 59 % 57 % 1021,9 hPa 0,0 l/m 5,6 km/h (1 Bft) SW 225 0 min 6,9 C 18,0 C 8,4 km/h (2 Bft)
26.03.2021 13:55 14,9 C 8,0 C 15,4 C 18,5 C 18,5 C 3,6 C 58 % 57 % 1021,9 hPa 0,0 l/m 6,1 km/h (2 Bft) S-SW 202 5 min 6,7 C 18,5 C 7,7 km/h (2 Bft)
26.03.2021 14:00 15,1 C 8,1 C 15,6 C 19,2 C 19,2 C 4,1 C 58 % 56 % 1021,9 hPa 0,0 l/m 6,3 km/h (2 Bft) W-SW 247 5 min 6,9 C 19,2 C 7,4 km/h (2 Bft)
26.03.2021 14:05 15,1 C 8,1 C 15,6 C 19,3 C 19,3 C 4,2 C 57 % 56 % 1021,9 hPa 0,0 l/m 6,6 km/h (2 Bft) SW 225 5 min 6,6 C 19,3 C 8,2 km/h (2 Bft)
26.03.2021 14:10 15,2 C 8,1 C 15,5 C 19,5 C 19,5 C 4,3 C 57 % 56 % 1021,6 hPa 0,0 l/m 6,3 km/h (2 Bft) SW 225 5 min 6,7 C 19,5 C 9,8 km/h (2 Bft)
26.03.2021 14:15 15,3 C 8,2 C 15,6 C 19,7 C 19,7 C 4,4 C 57 % 56 % 1021,6 hPa 0,0 l/m 5,5 km/h (1 Bft) SW 225 5 min 6,8 C 19,7 C 8,9 km/h (2 Bft)
26.03.2021 14:20 15,6 C 8,2 C 15,7 C 20,1 C 20,1 C 4,5 C 57 % 56 % 1021,6 hPa 0,0 l/m 5,3 km/h (1 Bft) W-SW 247 5 min 7,1 C 20,1 C 8,2 km/h (2 Bft)
26.03.2021 14:25 15,6 C 8,2 C 15,7 C 20,3 C 20,3 C 4,7 C 56 % 56 % 1021,6 hPa 0,0 l/m 4,8 km/h (1 Bft) SW 225 5 min 6,9 C 20,3 C 6,6 km/h (2 Bft)
26.03.2021 14:30 15,9 C 8,2 C 15,7 C 20,8 C 20,8 C 4,9 C 56 % 56 % 1021,4 hPa 0,0 l/m 3,9 km/h (1 Bft) SW 225 5 min 7,1 C 20,8 C 8,5 km/h (2 Bft)
26.03.2021 14:35 15,9 C 8,2 C 15,7 C 20,5 C 20,5 C 4,6 C 54 % 55 % 1021,4 hPa 0,0 l/m 4,7 km/h (1 Bft) W-SW 247 5 min 6,6 C 20,5 C 5,6 km/h (1 Bft)
26.03.2021 14:40 15,5 C 8,3 C 15,3 C 18,9 C 18,9 C 3,4 C 54 % 55 % 1021,4 hPa 0,0 l/m 6,0 km/h (2 Bft) SW 225 5 min 6,2 C 18,9 C 8,2 km/h (2 Bft)
26.03.2021 14:45 15,3 C 8,2 C 15,4 C 18,7 C 18,7 C 3,4 C 54 % 55 % 1021,4 hPa 0,0 l/m 5,5 km/h (1 Bft) W-SW 247 5 min 6,0 C 18,7 C 5,1 km/h (1 Bft)
26.03.2021 14:50 15,7 C 8,4 C 15,7 C 19,9 C 19,9 C 4,2 C 55 % 56 % 1021,5 hPa 0,0 l/m 4,5 km/h (1 Bft) SW 225 5 min 6,7 C 19,9 C 3,9 km/h (1 Bft)
26.03.2021 14:55 15,9 C 8,4 C 15,9 C 20,6 C 20,6 C 4,7 C 54 % 55 % 1021,5 hPa 0,0 l/m 4,0 km/h (1 Bft) SW 225 5 min 6,6 C 20,6 C 6,6 km/h (2 Bft)
26.03.2021 15:00 16,0 C 8,4 C 15,7 C 20,9 C 20,9 C 4,9 C 52 % 52 % 1021,5 hPa 0,0 l/m 4,0 km/h (1 Bft) SW 225 5 min 6,2 C 20,9 C 5,8 km/h (2 Bft)
26.03.2021 15:05 16,0 C 8,4 C 15,7 C 21,1 C 21,1 C 5,1 C 52 % 54 % 1021,5 hPa 0,0 l/m 3,7 km/h (1 Bft) S-SO 157 5 min 6,2 C 21,1 C 7,6 km/h (2 Bft)
26.03.2021 15:10 16,2 C 8,4 C 15,7 C 21,0 C 21,0 C 4,8 C 52 % 53 % 1020,7 hPa 0,0 l/m 4,2 km/h (1 Bft) W-SW 247 5 min 6,3 C 21,0 C 8,5 km/h (2 Bft)
26.03.2021 15:15 16,1 C 8,4 C 15,7 C 20,8 C 20,8 C 4,7 C 51 % 53 % 1020,7 hPa 0,0 l/m 4,2 km/h (1 Bft) SO 135 5 min 6,0 C 20,8 C 3,9 km/h (1 Bft)
26.03.2021 15:20 16,3 C 8,4 C 15,7 C 21,0 C 21,0 C 4,7 C 51 % 52 % 1020,7 hPa 0,0 l/m 3,1 km/h (1 Bft) SO 135 5 min 6,1 C 21,0 C 0,0 km/h (0 Bft)
26.03.2021 15:25 16,3 C 8,4 C 15,6 C 21,0 C 21,0 C 4,7 C 51 % 52 % 1020,7 hPa 0,0 l/m 3,2 km/h (1 Bft) SW 225 5 min 6,1 C 21,0 C 4,2 km/h (1 Bft)
26.03.2021 15:30 16,2 C 8,5 C 15,6 C 20,7 C 20,7 C 4,5 C 50 % 50 % 1020,4 hPa 0,0 l/m 3,1 km/h (1 Bft) S 180 5 min 5,8 C 20,7 C 5,1 km/h (1 Bft)
26.03.2021 15:35 16,3 C 8,5 C 15,6 C 20,8 C 20,8 C 4,5 C 50 % 50 % 1020,4 hPa 0,0 l/m 2,9 km/h (1 Bft) S 180 5 min 5,9 C 20,8 C 7,2 km/h (2 Bft)
26.03.2021 15:40 16,4 C 8,5 C 15,4 C 20,4 C 20,4 C 4,0 C 49 % 49 % 1020,4 hPa 0,0 l/m 2,6 km/h (1 Bft) SO 135 5 min 5,7 C 20,4 C 1,9 km/h (1 Bft)
26.03.2021 15:45 16,1 C 8,5 C 15,2 C 19,1 C 19,1 C 3,0 C 48 % 50 % 1020,4 hPa 0,0 l/m 2,9 km/h (1 Bft) SW 225 0 min 5,1 C 19,1 C 0,0 km/h (0 Bft)
26.03.2021 15:50 16,0 C 8,5 C 15,4 C 18,6 C 18,6 C 2,6 C 49 % 51 % 1020,2 hPa 0,0 l/m 3,2 km/h (1 Bft) SW 225 0 min 5,3 C 18,6 C 7,7 km/h (2 Bft)
26.03.2021 15:55 16,3 C 8,5 C 15,8 C 19,3 C 19,3 C 3,0 C 49 % 51 % 1020,2 hPa 0,0 l/m 3,5 km/h (1 Bft) S-SO 157 0 min 5,6 C 19,3 C 7,2 km/h (2 Bft)
26.03.2021 16:00 16,4 C 8,5 C 15,9 C 20,1 C 20,1 C 3,7 C 48 % 49 % 1020,2 hPa 0,0 l/m 3,5 km/h (1 Bft) SW 225 5 min 5,4 C 20,1 C 3,7 km/h (1 Bft)
26.03.2021 16:05 16,3 C 8,6 C 15,7 C 19,8 C 19,8 C 3,5 C 48 % 49 % 1020,2 hPa 0,0 l/m 2,7 km/h (1 Bft) S 180 5 min 5,3 C 19,8 C 3,1 km/h (1 Bft)
26.03.2021 16:10 16,1 C 8,6 C 15,4 C 18,4 C 18,4 C 2,3 C 47 % 48 % 1020,4 hPa 0,0 l/m 2,6 km/h (1 Bft) S 180 0 min 4,8 C 18,4 C 3,2 km/h (1 Bft)
26.03.2021 16:15 16,0 C 8,6 C 15,3 C 17,9 C 17,9 C 1,9 C 47 % 48 % 1020,4 hPa 0,0 l/m 2,6 km/h (1 Bft) S 180 0 min 4,7 C 17,9 C 1,8 km/h (1 Bft)
26.03.2021 16:20 16,0 C 8,6 C 15,2 C 17,5 C 17,5 C 1,5 C 48 % 49 % 1020,4 hPa 0,0 l/m 2,9 km/h (1 Bft) SW 225 0 min 5,0 C 17,5 C 5,0 km/h (1 Bft)
26.03.2021 16:25 15,9 C 8,6 C 15,4 C 17,5 C 17,5 C 1,6 C 48 % 50 % 1020,4 hPa 0,0 l/m 3,4 km/h (1 Bft) W-SW 247 0 min 4,9 C 17,5 C 6,4 km/h (2 Bft)
26.03.2021 16:30 16,1 C 8,6 C 15,7 C 18,0 C 18,0 C 1,9 C 49 % 50 % 1020,0 hPa 0,0 l/m 3,2 km/h (1 Bft) SW 225 0 min 5,4 C 18,0 C 3,7 km/h (1 Bft)
26.03.2021 16:35 16,1 C 8,6 C 15,6 C 18,2 C 18,2 C 2,1 C 49 % 50 % 1020,0 hPa 0,0 l/m 2,7 km/h (1 Bft) O-SO 112 0 min 5,4 C 18,2 C 5,8 km/h (2 Bft)
26.03.2021 16:40 16,0 C 8,6 C 15,5 C 17,8 C 17,8 C 1,8 C 47 % 48 % 1020,0 hPa 0,0 l/m 3,1 km/h (1 Bft) S 180 0 min 4,7 C 17,8 C 9,3 km/h (2 Bft)
26.03.2021 16:45 16,2 C 8,8 C 15,3 C 17,9 C 17,9 C 1,7 C 46 % 47 % 1020,0 hPa 0,0 l/m 3,2 km/h (1 Bft) SW 225 0 min 4,6 C 17,9 C 8,4 km/h (2 Bft)
26.03.2021 16:50 16,1 C 8,8 C 15,2 C 17,7 C 17,7 C 1,6 C 46 % 47 % 1019,9 hPa 0,0 l/m 3,4 km/h (1 Bft) SW 225 0 min 4,5 C 17,7 C 6,8 km/h (2 Bft)
26.03.2021 16:55 16,1 C 8,8 C 15,0 C 17,5 C 17,5 C 1,4 C 46 % 48 % 1019,9 hPa 0,0 l/m 3,5 km/h (1 Bft) O-NO 67 0 min 4,5 C 17,5 C 0,0 km/h (0 Bft)
26.03.2021 17:00 16,1 C 8,8 C 14,8 C 17,1 C 17,1 C 1,0 C 46 % 49 % 1019,9 hPa 0,0 l/m 2,1 km/h (1 Bft) O-SO 112 0 min 4,5 C 17,1 C 0,0 km/h (0 Bft)
26.03.2021 17:05 16,0 C 8,8 C 14,8 C 17,2 C 17,2 C 1,2 C 47 % 49 % 1019,9 hPa 0,0 l/m 1,0 km/h (0 Bft) S 180 0 min 4,7 C 17,2 C 0,0 km/h (0 Bft)
26.03.2021 17:10 15,9 C 8,8 C 14,6 C 17,1 C 17,1 C 1,2 C 46 % 49 % 1020,0 hPa 0,0 l/m 0,6 km/h (0 Bft) SO 135 0 min 4,3 C 17,1 C 2,4 km/h (1 Bft)
26.03.2021 17:15 15,7 C 8,8 C 14,3 C 16,5 C 16,5 C 0,8 C 46 % 49 % 1020,0 hPa 0,0 l/m 0,8 km/h (0 Bft) W-SW 247 0 min 4,1 C 16,5 C 2,4 km/h (1 Bft)
26.03.2021 17:20 15,5 C 8,8 C 13,9 C 15,7 C 15,7 C 0,2 C 47 % 50 % 1020,0 hPa 0,0 l/m 0,5 km/h (0 Bft) SW 225 0 min 4,2 C 15,7 C 0,0 km/h (0 Bft)
26.03.2021 17:25 15,4 C 8,9 C 13,9 C 15,4 C 15,4 C 0,0 C 47 % 51 % 1020,0 hPa 0,0 l/m 0,5 km/h (0 Bft) S 180 0 min 4,1 C 15,4 C 1,9 km/h (1 Bft)
26.03.2021 17:30 15,6 C 8,8 C 13,7 C 15,8 C 15,8 C 0,2 C 48 % 53 % 1019,8 hPa 0,0 l/m 1,1 km/h (1 Bft) S 180 0 min 4,6 C 15,8 C 2,9 km/h (1 Bft)
26.03.2021 17:35 15,6 C 8,9 C 13,7 C 16,0 C 16,0 C 0,4 C 48 % 52 % 1019,8 hPa 0,0 l/m 1,4 km/h (1 Bft) SW 225 0 min 4,6 C 16,0 C 2,4 km/h (1 Bft)
26.03.2021 17:40 15,5 C 8,8 C 13,4 C 15,5 C 15,5 C 0,0 C 48 % 54 % 1019,8 hPa 0,0 l/m 1,1 km/h (1 Bft) S 180 0 min 4,5 C 15,5 C 0,0 km/h (0 Bft)
26.03.2021 17:45 15,5 C 8,8 C 13,1 C 15,3 C 15,0 C 0,0 C 48 % 55 % 1019,8 hPa 0,0 l/m 0,3 km/h (0 Bft) S 180 0 min 4,5 C 15,0 C 0,0 km/h (0 Bft)
26.03.2021 17:50 15,1 C 8,8 C 12,7 C 14,9 C 14,6 C 0,0 C 48 % 56 % 1020,0 hPa 0,0 l/m 0,0 km/h (0 Bft) S 180 0 min 4,2 C 14,6 C 0,0 km/h (0 Bft)
26.03.2021 17:55 14,9 C 8,9 C 12,4 C 14,7 C 14,4 C 0,0 C 49 % 56 % 1020,0 hPa 0,0 l/m 0,0 km/h (0 Bft) S 180 0 min 4,3 C 14,4 C 0,0 km/h (0 Bft)
26.03.2021 18:00 14,7 C 8,9 C 12,2 C 14,5 C 14,1 C 0,0 C 50 % 57 % 1020,0 hPa 0,0 l/m 0,0 km/h (0 Bft) S 180 0 min 4,4 C 14,1 C 0,0 km/h (0 Bft)
26.03.2021 18:05 14,5 C 8,9 C 12,1 C 14,4 C 14,1 C 0,0 C 51 % 58 % 1020,0 hPa 0,0 l/m 0,0 km/h (0 Bft) S 180 0 min 4,5 C 14,1 C 0,0 km/h (0 Bft)
26.03.2021 18:10 14,3 C 8,9 C 11,9 C 14,2 C 14,1 C 0,0 C 51 % 58 % 1019,8 hPa 0,0 l/m 0,0 km/h (0 Bft) S 180 0 min 4,3 C 14,1 C 0,0 km/h (0 Bft)
26.03.2021 18:15 14,0 C 9,0 C 11,8 C 14,0 C 13,9 C 0,0 C 52 % 59 % 1019,8 hPa 0,0 l/m 0,0 km/h (0 Bft) S 180 0 min 4,3 C 13,9 C 0,0 km/h (0 Bft)
26.03.2021 18:20 13,9 C 8,9 C 11,3 C 13,7 C 13,3 C 0,0 C 53 % 60 % 1019,8 hPa 0,0 l/m 0,0 km/h (0 Bft) S 180 0 min 4,5 C 13,3 C 0,0 km/h (0 Bft)
26.03.2021 18:25 13,6 C 8,9 C 11,1 C 13,4 C 12,9 C 0,0 C 54 % 61 % 1019,8 hPa 0,0 l/m 0,0 km/h (0 Bft) S 180 0 min 4,5 C 12,9 C 0,0 km/h (0 Bft)
26.03.2021 18:30 13,2 C 8,9 C 10,6 C 12,8 C 12,1 C 0,0 C 55 % 62 % 1019,9 hPa 0,0 l/m 0,0 km/h (0 Bft) S 180 0 min 4,4 C 12,1 C 0,0 km/h (0 Bft)
26.03.2021 18:35 12,9 C 8,9 C 10,4 C 12,5 C 11,6 C 0,0 C 55 % 63 % 1019,9 hPa 0,0 l/m 0,0 km/h (0 Bft) S 180 0 min 4,1 C 11,6 C 0,0 km/h (0 Bft)
26.03.2021 18:40 12,5 C 8,9 C 10,1 C 12,1 C 11,2 C 0,0 C 57 % 65 % 1019,9 hPa 0,0 l/m 0,0 km/h (0 Bft) S 180 0 min 4,2 C 11,2 C 0,0 km/h (0 Bft)
26.03.2021 18:45 12,3 C 9,0 C 9,8 C 11,8 C 10,9 C 0,0 C 57 % 65 % 1019,9 hPa 0,0 l/m 0,0 km/h (0 Bft) S 180 0 min 4,0 C 10,9 C 0,0 km/h (0 Bft)
26.03.2021 18:50 12,0 C 9,0 C 9,5 C 11,5 C 10,6 C 0,0 C 58 % 66 % 1019,6 hPa 0,0 l/m 0,0 km/h (0 Bft) S 180 0 min 4,0 C 10,6 C 0,0 km/h (0 Bft)
26.03.2021 18:55 11,7 C 9,0 C 9,4 C 11,2 C 10,2 C 0,0 C 58 % 67 % 1019,6 hPa 0,0 l/m 0,0 km/h (0 Bft) S 180 0 min 3,7 C 10,2 C 0,0 km/h (0 Bft)
26.03.2021 19:00 11,5 C 9,0 C 9,0 C 10,9 C 9,7 C 0,0 C 58 % 68 % 1019,6 hPa 0,0 l/m 0,0 km/h (0 Bft) S 180 0 min 3,5 C 9,7 C 0,0 km/h (0 Bft)
26.03.2021 19:05 11,1 C 9,0 C 8,8 C 10,5 C 9,3 C 0,0 C 58 % 68 % 1019,6 hPa 0,0 l/m 0,0 km/h (0 Bft) S 180 0 min 3,2 C 9,3 C 0,0 km/h (0 Bft)
26.03.2021 19:10 10,8 C 9,0 C 8,5 C 10,2 C 8,9 C 0,0 C 59 % 69 % 1019,6 hPa 0,0 l/m 0,0 km/h (0 Bft) S 180 0 min 3,1 C 8,9 C 0,0 km/h (0 Bft)
26.03.2021 19:15 10,4 C 9,0 C 8,3 C 9,8 C 8,6 C 0,0 C 60 % 70 % 1019,6 hPa 0,0 l/m 0,0 km/h (0 Bft) S 180 0 min 3,0 C 8,6 C 0,0 km/h (0 Bft)
26.03.2021 19:20 10,1 C 9,0 C 8,0 C 9,5 C 8,2 C 0,0 C 61 % 71 % 1019,6 hPa 0,0 l/m 0,0 km/h (0 Bft) S 180 0 min 2,9 C 8,2 C 0,0 km/h (0 Bft)
26.03.2021 19:25 9,9 C 9,0 C 7,8 C 9,3 C 8,1 C 0,0 C 62 % 72 % 1019,6 hPa 0,0 l/m 0,0 km/h (0 Bft) S 180 0 min 3,0 C 8,1 C 0,0 km/h (0 Bft)
26.03.2021 19:30 9,6 C 9,0 C 7,7 C 9,0 C 7,7 C 0,0 C 63 % 72 % 1020,0 hPa 0,0 l/m 0,0 km/h (0 Bft) S 180 0 min 2,9 C 7,7 C 0,0 km/h (0 Bft)
26.03.2021 19:35 9,5 C 9,0 C 7,5 C 8,8 C 7,5 C 0,0 C 63 % 73 % 1020,0 hPa 0,0 l/m 0,0 km/h (0 Bft) S 180 0 min 2,8 C 7,5 C 0,0 km/h (0 Bft)
26.03.2021 19:40 9,1 C 9,0 C 7,4 C 8,6 C 7,5 C 0,0 C 64 % 74 % 1020,0 hPa 0,0 l/m 0,0 km/h (0 Bft) S 180 0 min 2,7 C 7,5 C 0,0 km/h (0 Bft)
26.03.2021 19:45 8,9 C 9,0 C 7,3 C 8,3 C 7,2 C 0,0 C 65 % 74 % 1020,0 hPa 0,0 l/m 0,0 km/h (0 Bft) S 180 0 min 2,7 C 7,2 C 0,0 km/h (0 Bft)
26.03.2021 19:50 8,7 C 9,0 C 7,1 C 8,1 C 6,8 C 0,0 C 67 % 75 % 1020,1 hPa 0,0 l/m 0,0 km/h (0 Bft) S 180 0 min 2,9 C 6,8 C 0,0 km/h (0 Bft)
26.03.2021 19:55 8,5 C 9,1 C 7,0 C 7,9 C 6,7 C 0,0 C 67 % 75 % 1020,1 hPa 0,0 l/m 0,0 km/h (0 Bft) S 180 0 min 2,7 C 6,7 C 0,0 km/h (0 Bft)
26.03.2021 20:00 8,3 C 9,1 C 6,8 C 7,7 C 6,5 C 0,0 C 67 % 76 % 1020,1 hPa 0,0 l/m 0,0 km/h (0 Bft) S 180 0 min 2,5 C 6,5 C 0,0 km/h (0 Bft)
26.03.2021 20:05 8,1 C 9,1 C 6,7 C 7,5 C 6,3 C 0,0 C 68 % 76 % 1020,1 hPa 0,0 l/m 0,0 km/h (0 Bft) S 180 0 min 2,6 C 6,3 C 0,0 km/h (0 Bft)
26.03.2021 20:10 7,9 C 9,2 C 6,7 C 7,3 C 6,1 C 0,0 C 69 % 77 % 1019,8 hPa 0,0 l/m 0,0 km/h (0 Bft) S 180 0 min 2,6 C 6,1 C 0,0 km/h (0 Bft)
26.03.2021 20:15 7,8 C 9,1 C 6,7 C 7,2 C 6,0 C 0,0 C 70 % 78 % 1019,8 hPa 0,0 l/m 0,0 km/h (0 Bft) S 180 0 min 2,7 C 6,0 C 0,0 km/h (0 Bft)
26.03.2021 20:20 7,7 C 9,1 C 6,5 C 7,1 C 5,9 C 0,0 C 71 % 78 % 1019,8 hPa 0,0 l/m 0,0 km/h (0 Bft) S 180 0 min 2,8 C 5,9 C 0,0 km/h (0 Bft)
26.03.2021 20:25 7,4 C 9,1 C 6,3 C 6,9 C 5,9 C 0,0 C 71 % 78 % 1019,8 hPa 0,0 l/m 0,0 km/h (0 Bft) S 180 0 min 2,5 C 5,9 C 0,0 km/h (0 Bft)
26.03.2021 20:30 7,2 C 9,1 C 6,2 C 6,7 C 5,6 C 0,0 C 71 % 79 % 1019,6 hPa 0,0 l/m 0,0 km/h (0 Bft) S 180 0 min 2,3 C 5,6 C 0,0 km/h (0 Bft)
26.03.2021 20:35 7,1 C 9,2 C 6,1 C 6,6 C 5,5 C 0,0 C 72 % 79 % 1019,6 hPa 0,0 l/m 0,0 km/h (0 Bft) S 180 0 min 2,4 C 5,5 C 0,0 km/h (0 Bft)
26.03.2021 20:40 6,9 C 9,2 C 6,0 C 6,4 C 5,5 C 0,0 C 72 % 80 % 1019,6 hPa 0,0 l/m 0,0 km/h (0 Bft) S 180 0 min 2,2 C 5,5 C 0,0 km/h (0 Bft)
26.03.2021 20:45 6,8 C 9,2 C 5,9 C 6,4 C 5,5 C 0,0 C 73 % 80 % 1019,6 hPa 0,0 l/m 0,0 km/h (0 Bft) S 180 0 min 2,3 C 5,5 C 0,0 km/h (0 Bft)
26.03.2021 20:50 6,7 C 9,1 C 5,7 C 6,2 C 5,3 C 0,0 C 73 % 80 % 1019,4 hPa 0,0 l/m 0,0 km/h (0 Bft) S 180 0 min 2,2 C 5,3 C 0,0 km/h (0 Bft)
26.03.2021 20:55 6,6 C 9,1 C 5,6 C 6,1 C 5,2 C 0,0 C 73 % 81 % 1019,4 hPa 0,0 l/m 0,0 km/h (0 Bft) S 180 0 min 2,1 C 5,2 C 0,0 km/h (0 Bft)
26.03.2021 21:00 6,4 C 9,1 C 5,6 C 5,9 C 5,0 C 0,0 C 74 % 81 % 1019,4 hPa 0,0 l/m 0,0 km/h (0 Bft) S 180 0 min 2,1 C 5,0 C 0,0 km/h (0 Bft)
26.03.2021 21:05 6,3 C 9,1 C 5,4 C 5,9 C 5,0 C 0,0 C 74 % 81 % 1019,4 hPa 0,0 l/m 0,0 km/h (0 Bft) S 180 0 min 2,0 C 5,0 C 0,0 km/h (0 Bft)
26.03.2021 21:10 6,3 C 9,2 C 5,3 C 5,9 C 5,1 C 0,0 C 75 % 81 % 1019,4 hPa 0,0 l/m 0,0 km/h (0 Bft) S 180 0 min 2,2 C 5,1 C 0,0 km/h (0 Bft)
26.03.2021 21:15 6,2 C 9,1 C 5,2 C 5,8 C 5,1 C 0,0 C 75 % 82 % 1019,4 hPa 0,0 l/m 0,0 km/h (0 Bft) S 180 0 min 2,1 C 5,1 C 0,0 km/h (0 Bft)
26.03.2021 21:20 6,0 C 9,2 C 5,1 C 5,6 C 4,9 C 0,0 C 76 % 82 % 1019,4 hPa 0,0 l/m 0,0 km/h (0 Bft) S 180 0 min 2,1 C 4,9 C 0,0 km/h (0 Bft)
26.03.2021 21:25 5,9 C 9,2 C 5,1 C 5,5 C 4,8 C 0,0 C 76 % 82 % 1019,4 hPa 0,0 l/m 0,0 km/h (0 Bft) S 180 0 min 2,0 C 4,8 C 0,0 km/h (0 Bft)
26.03.2021 21:30 5,9 C 9,2 C 5,0 C 5,5 C 4,8 C 0,0 C 77 % 83 % 1019,3 hPa 0,0 l/m 0,0 km/h (0 Bft) S 180 0 min 2,2 C 4,8 C 0,0 km/h (0 Bft)
26.03.2021 21:35 5,9 C 9,2 C 5,0 C 5,5 C 4,7 C 0,0 C 78 % 83 % 1019,3 hPa 0,0 l/m 0,0 km/h (0 Bft) S 180 0 min 2,4 C 4,7 C 0,0 km/h (0 Bft)
26.03.2021 21:40 5,7 C 9,2 C 4,9 C 5,3 C 4,5 C 0,0 C 78 % 83 % 1019,3 hPa 0,0 l/m 0,0 km/h (0 Bft) S 180 0 min 2,2 C 4,5 C 0,0 km/h (0 Bft)
26.03.2021 21:45 5,6 C 9,2 C 4,9 C 5,2 C 4,4 C 0,0 C 78 % 83 % 1019,3 hPa 0,0 l/m 0,0 km/h (0 Bft) S 180 0 min 2,1 C 4,4 C 0,0 km/h (0 Bft)
26.03.2021 21:50 5,5 C 9,1 C 4,8 C 5,0 C 4,1 C 0,0 C 78 % 83 % 1019,4 hPa 0,0 l/m 0,0 km/h (0 Bft) S 180 0 min 2,0 C 4,1 C 0,0 km/h (0 Bft)
26.03.2021 21:55 5,5 C 9,1 C 4,7 C 5,0 C 4,1 C 0,0 C 78 % 83 % 1019,4 hPa 0,0 l/m 0,0 km/h (0 Bft) S 180 0 min 2,0 C 4,1 C 0,0 km/h (0 Bft)
26.03.2021 22:00 5,3 C 9,1 C 4,5 C 4,9 C 4,1 C 0,0 C 79 % 84 % 1019,4 hPa 0,0 l/m 0,0 km/h (0 Bft) S 180 0 min 2,0 C 4,1 C 0,0 km/h (0 Bft)
26.03.2021 22:05 5,2 C 9,2 C 4,4 C 4,8 C 3,9 C 0,0 C 79 % 84 % 1019,4 hPa 0,0 l/m 0,0 km/h (0 Bft) S 180 0 min 1,9 C 3,9 C 0,0 km/h (0 Bft)
26.03.2021 22:10 5,1 C 9,2 C 4,4 C 4,6 C 3,6 C 0,0 C 79 % 84 % 1019,2 hPa 0,0 l/m 0,0 km/h (0 Bft) S 180 0 min 1,8 C 3,6 C 0,0 km/h (0 Bft)
26.03.2021 22:15 5,1 C 9,2 C 4,3 C 4,6 C 3,5 C 0,0 C 79 % 85 % 1019,2 hPa 0,0 l/m 0,0 km/h (0 Bft) S 180 0 min 1,8 C 3,5 C 0,0 km/h (0 Bft)
26.03.2021 22:20 4,9 C 9,2 C 4,3 C 4,5 C 3,6 C 0,0 C 79 % 85 % 1019,2 hPa 0,0 l/m 0,0 km/h (0 Bft) S 180 0 min 1,6 C 3,6 C 0,0 km/h (0 Bft)
26.03.2021 22:25 4,8 C 9,1 C 4,2 C 4,4 C 3,6 C 0,0 C 80 % 85 % 1019,2 hPa 0,0 l/m 0,0 km/h (0 Bft) S 180 0 min 1,6 C 3,6 C 0,0 km/h (0 Bft)
26.03.2021 22:30 4,7 C 9,1 C 4,1 C 4,3 C 3,4 C 0,0 C 80 % 85 % 1018,9 hPa 0,0 l/m 0,0 km/h (0 Bft) S 180 0 min 1,6 C 3,4 C 0,0 km/h (0 Bft)
26.03.2021 22:35 4,6 C 9,1 C 4,1 C 4,2 C 3,3 C 0,0 C 80 % 85 % 1018,9 hPa 0,0 l/m 0,0 km/h (0 Bft) S 180 0 min 1,5 C 3,3 C 0,0 km/h (0 Bft)
26.03.2021 22:40 4,6 C 9,1 C 4,1 C 4,1 C 3,2 C 0,0 C 80 % 85 % 1018,9 hPa 0,0 l/m 0,0 km/h (0 Bft) S 180 0 min 1,5 C 3,2 C 0,0 km/h (0 Bft)
26.03.2021 22:45 4,5 C 9,1 C 4,0 C 4,1 C 3,3 C 0,0 C 80 % 85 % 1018,9 hPa 0,0 l/m 0,0 km/h (0 Bft) S 180 0 min 1,4 C 3,3 C 0,0 km/h (0 Bft)
26.03.2021 22:50 4,4 C 9,1 C 3,9 C 4,0 C 3,3 C 0,0 C 80 % 86 % 1018,9 hPa 0,0 l/m 0,0 km/h (0 Bft) S 180 0 min 1,3 C 3,3 C 0,0 km/h (0 Bft)
26.03.2021 22:55 4,4 C 9,1 C 4,0 C 4,0 C 3,3 C 0,0 C 81 % 86 % 1018,9 hPa 0,0 l/m 0,0 km/h (0 Bft) S 180 0 min 1,4 C 3,3 C 0,0 km/h (0 Bft)
26.03.2021 23:00 4,4 C 9,1 C 4,1 C 4,1 C 3,5 C 0,0 C 81 % 86 % 1018,9 hPa 0,0 l/m 0,0 km/h (0 Bft) S 180 0 min 1,4 C 3,5 C 0,0 km/h (0 Bft)
26.03.2021 23:05 4,3 C 9,1 C 4,0 C 4,0 C 3,5 C 0,0 C 81 % 86 % 1018,9 hPa 0,0 l/m 0,0 km/h (0 Bft) S 180 0 min 1,3 C 3,5 C 0,0 km/h (0 Bft)
26.03.2021 23:10 4,3 C 9,1 C 4,0 C 4,0 C 3,4 C 0,0 C 81 % 87 % 1018,3 hPa 0,0 l/m 0,0 km/h (0 Bft) S 180 0 min 1,3 C 3,4 C 0,0 km/h (0 Bft)
26.03.2021 23:15 4,3 C 9,1 C 4,1 C 4,0 C 3,3 C 0,0 C 81 % 87 % 1018,3 hPa 0,0 l/m 0,0 km/h (0 Bft) S 180 0 min 1,3 C 3,3 C 0,0 km/h (0 Bft)
26.03.2021 23:20 4,1 C 9,1 C 4,0 C 3,8 C 3,2 C 0,0 C 82 % 87 % 1018,3 hPa 0,0 l/m 0,0 km/h (0 Bft) S 180 0 min 1,3 C 3,2 C 0,0 km/h (0 Bft)
26.03.2021 23:25 4,1 C 9,1 C 4,0 C 3,8 C 3,2 C 0,0 C 82 % 87 % 1018,3 hPa 0,0 l/m 0,0 km/h (0 Bft) S 180 0 min 1,3 C 3,2 C 0,0 km/h (0 Bft)
26.03.2021 23:30 4,0 C 9,1 C 3,9 C 3,7 C 3,0 C 0,0 C 82 % 87 % 1018,5 hPa 0,0 l/m 0,0 km/h (0 Bft) S 180 0 min 1,2 C 3,0 C 0,0 km/h (0 Bft)
26.03.2021 23:35 4,1 C 9,1 C 3,8 C 3,7 C 3,0 C 0,0 C 82 % 87 % 1018,5 hPa 0,0 l/m 0,0 km/h (0 Bft) S 180 0 min 1,3 C 3,0 C 0,0 km/h (0 Bft)
26.03.2021 23:40 4,0 C 9,1 C 3,7 C 3,6 C 2,9 C 0,0 C 82 % 87 % 1018,5 hPa 0,0 l/m 0,0 km/h (0 Bft) S 180 0 min 1,2 C 2,9 C 0,0 km/h (0 Bft)
26.03.2021 23:45 3,9 C 9,1 C 3,7 C 3,6 C 2,9 C 0,0 C 83 % 87 % 1018,5 hPa 0,0 l/m 0,0 km/h (0 Bft) S 180 0 min 1,3 C 2,9 C 0,0 km/h (0 Bft)
26.03.2021 23:50 3,9 C 9,1 C 3,5 C 3,5 C 2,8 C 0,0 C 83 % 87 % 1018,2 hPa 0,0 l/m 0,0 km/h (0 Bft) S 180 0 min 1,3 C 2,8 C 0,0 km/h (0 Bft)
26.03.2021 23:55 4,0 C 9,2 C 3,5 C 3,6 C 2,8 C 0,0 C 83 % 87 % 1018,2 hPa 0,0 l/m 0,0 km/h (0 Bft) S 180 0 min 1,4 C 2,8 C 0,0 km/h (0 Bft)
_ Min-Zeit 06:25 09:30 05:55 06:25 04:55 00:00 16:45 16:45 23:50 - 00:00 - - - 06:25 04:55 00:05
Minimum _ 1,0 C 7,3 C 0,9 C 0,8 C 0,2 C 0,0 C 46 % 47 % 1018,2 hPa - 0,0 km/h (0 Bft) - - - -0,8 C 0,2 C 0,0 km/h (0 Bft)
_ Max-Zeit 15:40 20:10 12:05 15:05 15:05 08:40 05:35 04:55 10:30 00:00 11:00 - - 06:45 13:00 15:05 11:40
Maximum _ 16,4 C 9,2 C 18,2 C 21,1 C 21,1 C 7,5 C 88 % 92 % 1023,4 hPa 0,0 l/m 7,2 km/h
SW (2 Bft)
- - 5 min 7,5 C 21,1 C 17,2 km/h
S-SW (3 Bft)
Durchschnitt _ 8,4 C 8,4 C 8,4 C 9,8 C 9,3 C 1,6 C 72 % 75 % 1021,6 hPa #0,0 l/m 1,6 km/h (1 Bft) SW - #6:25 h 3,4 C 9,3 C 2,4 km/h (1 Bft)
2021 www.wetterstation-wechselburg.de